EW3286 Weather Reports


time (UTC)temp
F
wind
direction
speed
knots
gust
knots
rain 1hr
in
rain 24hr
in
rain mn
in
humidity
%
barometer
mb
20260507083010 35 56 0.0 0.0 0.00 0.00 0.00 72 1012.7
20260507081509 35 55 0.0 0.0 0.00 0.00 0.00 72 1012.8
20260507080006 36 53 0.0 0.0 0.00 0.00 0.00 71 1012.9
20260507074502 36 49 0.0 0.0 0.00 0.00 0.00 68 1013.1
20260507073058 38 40 0.0 0.0 0.00 0.00 0.00 64 1013.3
20260507071609 39 360 0.0 0.0 0.00 0.00 0.00 64 1013.6
20260507070052 40 66 0.0 0.0 0.00 0.00 0.00 62 1014.2
20260507064549 41 267 0.0 0.0 0.00 0.00 0.00 63 1014.5
20260507063047 41 311 0.0 0.0 0.00 0.00 0.00 62 1014.6
20260507061542 42 309 0.0 0.0 0.00 0.00 0.00 62 1014.6
20260507060041 43 331 0.0 0.0 0.00 0.00 0.00 59 1014.6
20260507054540 43 5 0.0 0.0 0.00 0.00 0.00 61 1014.6
20260507053109 43 9 0.0 0.0 0.00 0.00 0.00 59 1014.6
20260507051543 43 302 0.0 0.0 0.00 0.00 0.00 61 1014.8
20260507050037 43 302 0.0 0.0 0.00 0.00 0.00 58 1014.9
20260507044532 44 306 0.0 0.0 0.00 0.00 0.00 60 1015.0
20260507043033 44 31 0.0 0.0 0.00 0.00 0.00 55 1014.8
20260507041529 45 26 0.0 0.0 0.00 0.00 0.00 55 1014.8
20260507040029 45 39 0.0 0.0 0.00 0.00 0.00 52 1014.9
20260507034535 46 319 0.0 0.0 0.00 0.00 0.00 53 1015.1
20260507033125 47 342 0.0 0.0 0.00 0.00 0.00 53 1015.2
20260507031524 47 355 0.0 0.0 0.00 0.00 0.00 51 1015.2
20260507030027 47 346 0.0 0.0 0.00 0.00 0.00 50 1015.3
20260507024523 47 5 0.0 0.0 0.00 0.00 0.00 50 1015.4
20260507023122 47 250 0.0 0.0 0.00 0.00 0.00 50 1015.4
20260507021522 48 250 0.0 0.0 0.00 0.00 0.00 47 1015.3
20260507020022 49 250 0.0 0.0 0.00 0.00 0.00 44 1015.2
20260507014521 49 250 0.0 0.0 0.00 0.00 0.00 42 1015.2
20260507013021 49 245 0.0 0.0 0.00 0.00 0.00 41 1015.2
20260507011522 50 259 0.0 0.0 0.00 0.00 0.00 40 1015.2
20260507010024 50 237 0.0 0.0 0.00 0.00 0.00 40 1015.3
20260507004522 50 256 0.0 0.0 0.00 0.00 0.00 39 1015.3
20260507003019 51 223 0.0 0.0 0.00 0.00 0.00 38 1015.2
20260507001518 51 209 0.0 0.0 0.00 0.00 0.00 38 1015.3
20260507000017 51 223 0.0 0.0 0.00 0.00 0.00 38 1015.3
20260506234515 51 219 0.0 0.0 0.00 0.00 0.00 37 1015.3
20260506233015 52 224 0.0 0.0 0.00 0.00 0.00 37 1015.3
20260506231515 52 234 0.0 0.0 0.00 0.00 0.00 36 1015.3
20260506230013 52 189 0.0 0.0 0.00 0.00 0.00 36 1015.4
20260506224513 52 192 0.0 0.0 0.00 0.00 0.00 36 1015.5
20260506223010 52 221 0.0 0.0 0.00 0.00 0.00 36 1015.6
20260506221509 52 215 0.0 0.0 0.00 0.00 0.00 38 1015.7
20260506220002 51 173 0.0 0.0 0.00 0.00 0.00 38 1015.9
20260506214501 50 167 0.0 0.0 0.00 0.00 0.00 41 1016.0
20260506213001 50 202 0.0 0.0 0.00 0.00 0.00 41 1016.3
20260506211607 51 203 0.0 0.0 0.00 0.00 0.00 39 1016.4
20260506210057 50 203 0.0 0.0 0.00 0.00 0.00 41 1016.4
20260506204554 50 166 0.0 0.0 0.00 0.00 0.00 41 1016.7
20260506203052 50 178 0.0 0.0 0.00 0.00 0.00 42 1016.9
20260506201551 49 182 0.0 0.0 0.00 0.00 0.00 41 1017.0
20260506200055 49 207 0.0 0.0 0.00 0.00 0.00 45 1017.2
20260506194545 48 185 0.0 0.0 0.00 0.00 0.00 43 1017.3
20260506193042 48 194 0.0 0.0 0.00 0.00 0.00 43 1017.5
20260506191543 48 183 0.0 0.0 0.00 0.00 0.00 43 1017.7
20260506190039 47 176 0.0 0.0 0.00 0.00 0.00 44 1017.7
20260506184537 47 227 0.0 0.0 0.00 0.00 0.00 44 1017.7
20260506183034 47 216 0.0 0.0 0.00 0.00 0.00 45 1017.9
20260506181531 46 200 0.0 0.0 0.00 0.00 0.00 46 1018.2
20260506180029 46 217 0.0 0.0 0.00 0.00 0.00 47 1018.3
20260506174525 45 221 0.0 0.0 0.00 0.00 0.00 48 1018.4
20260506173025 45 229 0.0 0.0 0.00 0.00 0.00 48 1018.5
20260506171523 44 196 0.0 0.0 0.00 0.00 0.00 49 1018.5
20260506170018 44 216 0.0 0.0 0.00 0.00 0.00 50 1018.5
20260506164516 44 191 0.0 0.0 0.00 0.00 0.00 48 1018.5
20260506163013 44 219 0.0 0.0 0.00 0.00 0.00 48 1018.6
20260506161510 44 211 0.0 0.0 0.00 0.00 0.00 51 1018.6
20260506160007 44 202 0.0 0.0 0.00 0.00 0.00 49 1018.6
20260506154504 43 211 0.0 0.0 0.00 0.00 0.00 51 1018.5
20260506153005 43 215 0.0 0.0 0.00 0.00 0.00 53 1018.6
20260506151601 42 218 0.0 0.0 0.00 0.00 0.00 52 1018.7
20260506150100 42 229 0.0 0.0 0.00 0.00 0.00 52 1018.7
20260506144605 41 197 0.0 0.0 0.00 0.00 0.00 53 1018.7
20260506143050 41 206 0.0 0.0 0.00 0.00 0.00 54 1018.7
20260506141546 41 213 0.0 0.0 0.00 0.00 0.00 55 1018.7
20260506140046 40 212 0.0 0.0 0.00 0.00 0.00 57 1018.6
20260506134543 40 217 0.0 0.0 0.00 0.00 0.00 62 1018.6
20260506133044 40 237 0.0 0.0 0.00 0.00 0.00 62 1018.6
20260506131537 39 209 0.0 0.0 0.00 0.00 0.00 64 1018.7
20260506130034 38 232 0.0 0.0 0.00 0.00 0.00 65 1018.5
20260506124528 38 225 0.0 0.0 0.00 0.00 0.00 67 1018.4
20260506123025 37 229 0.0 0.0 0.00 0.00 0.00 72 1018.3
20260506121525 36 250 0.0 0.0 0.00 0.00 0.00 75 1018.1
20260506120026 35 257 0.0 0.0 0.00 0.00 0.00 76 1017.8
20260506114513 35 257 0.0 0.0 0.00 0.00 0.00 75 1017.4
20260506113011 35 274 0.0 0.0 0.00 0.00 0.00 75 1017.4
20260506111509 34 219 0.0 0.0 0.00 0.00 0.00 76 1017.5
20260506110007 34 219 0.0 0.0 0.00 0.00 0.00 76 1017.5
20260506104505 33 219 0.0 0.0 0.00 0.00 0.00 75 1017.1
20260506103005 33 219 0.0 0.0 0.00 0.00 0.00 76 1017.1
20260506101504 33 219 0.0 0.0 0.00 0.00 0.00 76 1017.2
20260506100003 32 223 0.0 0.0 0.00 0.00 0.00 76 1016.7
20260506094501 32 223 0.0 0.0 0.00 0.00 0.00 75 1016.8
20260506093001 32 223 0.0 0.0 0.00 0.00 0.00 74 1016.9
20260506091602 32 231 0.0 0.0 0.00 0.00 0.00 71 1016.8
20260506090100 33 241 0.0 0.0 0.00 0.00 0.00 72 1016.4
20260506084600 32 242 0.0 0.0 0.00 0.00 0.00 74 1016.0